Location: Blue Mountain Vista Observatory
(40.6992°N, 75.9422°W)
Time: 18:18:36
(UTC-04:00)

Amateur Radio Satellites - All Passes

Search period start: 01 September 2015 17:48
Search period end: 02 September 2015 17:48
Location: Blue Mountain Vista Observatory, 40.6992°N, 75.9422°W

Satellite Date Start Highest point End Downlink Frequencies (MHz)
Time Altitude Azimuth
AO-7 01 Sep 18:07:50 18:12:54 16° 273° (W) 18:17:24 29.400- 29.500
STARS 01 Sep 18:09:31 18:11:14 12° 297° (WNW) 18:12:42 437.465
O/OREOS (USA 219) 01 Sep 18:15:11 18:18:02 17° 101° (E) 18:21:04 437.305
Cubesat XI-IV 01 Sep 18:21:34 18:26:51 70° 74° (ENE) 18:32:10 437.490
Cosmos 2491 01 Sep 18:31:41 18:35:27 14° 56° (NE) 18:39:52 435.465 / 435.565
HO-68 01 Sep 18:37:34 18:39:46 12° 51° (NE) 18:42:23 435.675
MOZHAYETS 4 01 Sep 18:47:11 18:50:21 18° 294° (WNW) 18:53:22
CUBESAT XI-V 01 Sep 19:04:54 19:09:31 66° 101° (E) 19:14:10 437.345
CUTE-I 01 Sep 19:06:34 19:11:41 46° 261° (W) 19:16:47 437.470
PRISM 01 Sep 19:12:00 19:12:45 11° 89° (E) 19:13:47 437.425
STRAND 1 01 Sep 19:15:23 19:19:13 22° 92° (E) 19:23:12 437.568
AIST 1 01 Sep 19:27:53 19:32:13 67° 81° (E) 19:36:32
BRITE-PL 01 Sep 19:32:20 19:36:34 51° 73° (ENE) 19:41:10 437.365/2234.400
O/OREOS (USA 219) 01 Sep 19:52:46 19:57:08 45° 297° (WNW) 20:01:32 437.305
COMPASS 1 01 Sep 19:52:58 19:54:31 12° 65° (ENE) 19:56:16 437.405
GOMX 1 01 Sep 19:56:34 20:00:58 54° 73° (ENE) 20:05:44 467.674
AAUSAT CUBESAT 2 01 Sep 20:02:06 20:03:54 13° 65° (ENE) 20:05:52 437.432
Cubesat XI-IV 01 Sep 20:04:37 20:07:34 14° 271° (W) 20:10:14 437.490
RS-15 01 Sep 20:05:11 20:13:52 24° 342° (NNW) 20:22:41 29.354- 29.394
DOVE 4 01 Sep 20:05:51 20:10:10 41° 71° (ENE) 20:14:48 437.250
HO-68 01 Sep 20:19:14 20:26:14 61° 70° (ENE) 20:33:18 435.675
Cosmos 2491 01 Sep 20:25:38 20:34:23 71° 80° (E) 20:43:09 435.465 / 435.565
CUBEBUG 2 01 Sep 20:30:46 20:33:28 16° 65° (ENE) 20:36:22 437.445
CUTE 1.7 + AOD 2 01 Sep 20:31:19 20:35:29 51° 74° (ENE) 20:39:39 437.475
YUBILEINY 01 Sep 20:33:02 20:40:34 35° 86° (E) 20:48:20 435.215
UWE-3 01 Sep 20:36:17 20:38:31 14° 64° (ENE) 20:40:59 435.000/436.395/437.385
CUBESAT XI-V 01 Sep 20:44:09 20:46:29 13° 296° (WNW) 20:48:36 437.345
CINEMA 3 01 Sep 20:44:30 20:48:58 45° 72° (ENE) 20:53:40 145.822/145.860
PRISM 01 Sep 20:44:35 20:48:38 60° 286° (WNW) 20:52:41 437.425
CANX-2 01 Sep 20:45:20 20:49:37 84° 77° (ENE) 20:53:56 2200.000
STRAND 1 01 Sep 20:53:49 20:58:39 43° 290° (WNW) 21:03:27 437.568
SEEDS 01 Sep 21:05:08 21:09:24 82° 258° (WSW) 21:13:39 437.485
BRITE-PL 01 Sep 21:13:07 21:15:37 14° 273° (W) 21:18:01 437.365/2234.400
Oscar 11 01 Sep 21:16:14 21:20:14 38° 72° (ENE) 21:24:17 145.826/435.025
COMPASS 1 01 Sep 21:25:33 21:29:43 61° 260° (W) 21:33:53 437.405
AAUSAT CUBESAT 2 01 Sep 21:34:56 21:39:04 56° 260° (W) 21:43:12 437.432
GOMX 1 01 Sep 21:36:58 21:39:38 15° 273° (W) 21:42:10 467.674
DOVE 4 01 Sep 21:44:41 21:48:11 20° 270° (W) 21:51:43 437.250
DELFI C3 01 Sep 21:52:02 21:56:02 60° 75° (ENE) 22:00:02 145.870
ZACube-1 01 Sep 22:00:49 22:05:21 77° 77° (ENE) 22:10:00 437.345
CUBEBUG 2 01 Sep 22:05:07 22:09:41 58° 261° (W) 22:14:23 437.445
FUNcube-1 01 Sep 22:05:45 22:10:17 84° 77° (ENE) 22:14:54 145.935
VELOX 1 01 Sep 22:06:13 22:08:10 13° 64° (ENE) 22:10:19 145.980
HO-68 01 Sep 22:08:41 22:14:29 25° 268° (W) 22:20:06 435.675
CUTE 1.7 + AOD 2 01 Sep 22:09:31 22:11:45 13° 271° (W) 22:13:45 437.475
UWE-3 01 Sep 22:09:57 22:14:31 66° 260° (W) 22:19:12 435.000/436.395/437.385
Cosmos 2504 01 Sep 22:20:46 22:26:29 22° 81° (E) 22:32:43 435.465 / 435.565
TIGRISAT 01 Sep 22:21:55 22:22:18 10° 86° (E) 22:23:00 435.000
CINEMA 3 01 Sep 22:23:03 22:26:27 19° 270° (W) 22:29:48 145.822/145.860
RS-15 01 Sep 22:23:06 22:31:46 24° 17° (NNE) 22:40:56 29.354- 29.394
Cosmos 2491 01 Sep 22:23:51 22:30:33 24° 278° (W) 22:36:55 435.465 / 435.565
50 SAT 01 Sep 22:24:40 22:27:39 21° 69° (ENE) 22:30:44 437.505
YUBILEINY 01 Sep 22:28:38 22:37:09 51° 285° (WNW) 22:45:41 435.215
ANTELSAT 01 Sep 22:37:18 22:40:09 17° 90° (E) 22:43:07 437.575/2403.000
HUMSAT D 01 Sep 22:37:39 22:41:58 76° 75° (ENE) 22:46:18 437.325/437.525
DX 1 01 Sep 22:45:46 22:49:59 54° 73° (ENE) 22:54:15 434.975-435.025
Oscar 11 01 Sep 22:53:27 22:56:35 19° 268° (W) 22:59:36 145.826/435.025
UKube-1 01 Sep 22:56:40 23:00:55 64° 74° (ENE) 23:05:13 .
ESTCUBE 1 01 Sep 23:02:53 23:07:00 38° 71° (ENE) 23:11:11 437.505/2401.250
BEESAT 3 01 Sep 23:07:03 23:10:18 23° 47° (NE) 23:13:36 437.485
QB50P2 01 Sep 23:09:10 23:10:58 13° 89° (E) 23:12:59 145.880/145.840
NANOSAT C BR1 01 Sep 23:09:32 23:11:05 12° 89° (E) 23:12:53 145.865
CUBEBUG 1 01 Sep 23:09:42 23:13:38 36° 71° (ENE) 23:17:38 437.445
AISAT 01 Sep 23:11:56 23:16:18 68° 75° (ENE) 23:20:43 437.250
BEESAT 2 01 Sep 23:20:39 23:24:00 24° 47° (NE) 23:27:21 435.950
QB50P1 01 Sep 23:22:35 23:25:26 18° 91° (E) 23:28:25 145.935-145.965
UNISAT 6 01 Sep 23:27:01 23:31:32 58° 100° (E) 23:35:56 437.425
DELFI C3 01 Sep 23:31:10 23:31:33 10° 272° (W) 23:31:40 145.870
VELOX 1 01 Sep 23:39:54 23:44:14 62° 259° (W) 23:48:38 145.980
TIGRISAT 01 Sep 23:55:08 23:59:42 73° 285° (WNW) 00:04:08 435.000
50 SAT 01 Sep 23:58:35 00:02:02 28° 264° (W) 00:05:27 437.505
TISAT 1 02 Sep 00:01:24 00:04:41 23° 68° (ENE) 00:08:05 437.305
AIST 2 02 Sep 00:04:39 00:07:20 17° 42° (NE) 00:10:06 435.215
Cosmos 2504 02 Sep 00:09:40 00:17:49 76° 279° (W) 00:26:27 435.465 / 435.565
ANTELSAT 02 Sep 00:12:52 00:17:14 45° 288° (WNW) 00:21:28 437.575/2403.000
AUBIESAT-1 02 Sep 00:13:03 00:16:57 80° 289° (WNW) 00:20:33 437.475
M-CUBED/EXP-1 PRIME 02 Sep 00:19:32 00:23:26 54° 292° (WNW) 00:26:59 437.505
POLYITAN 1 02 Sep 00:23:31 00:27:51 88° 102° (ESE) 00:32:09 437.675
DX 1 02 Sep 00:24:29 00:26:38 13° 270° (W) 00:28:34 434.975-435.025
DUCHIFAT 1 02 Sep 00:25:06 00:29:25 86° 103° (ESE) 00:33:41 145.980
POPSAT HIP 1 02 Sep 00:25:39 00:30:00 89° 284° (WNW) 00:34:17 437.405
BUGSAT 1 02 Sep 00:27:50 00:32:03 57° 100° (E) 00:36:15 437.445
CUSAT 1 02 Sep 00:32:45 00:36:39 86° 276° (W) 00:41:59 437.405
RS-15 02 Sep 00:36:17 00:47:46 55° 47° (NE) 00:59:45 29.354- 29.394
UKube-1 02 Sep 00:36:23 00:37:34 11° 272° (W) 00:38:29 .
SPROUT 02 Sep 00:36:27 00:40:45 81° 257° (WSW) 00:45:05 437.525
ESTCUBE 1 02 Sep 00:40:44 00:44:03 19° 268° (W) 00:47:14 437.505/2401.250
QB50P2 02 Sep 00:43:02 00:47:15 54° 286° (WNW) 00:51:25 145.880/145.840
NANOSAT C BR1 02 Sep 00:43:07 00:47:21 57° 286° (WNW) 00:51:32 145.865
BEESAT 3 02 Sep 00:44:39 00:48:18 33° 245° (WSW) 00:51:51 437.485
CUBEBUG 1 02 Sep 00:46:57 00:50:08 19° 268° (W) 00:53:13 437.445
ITUPSAT 1 02 Sep 00:50:17 00:52:56 15° 64° (ENE) 00:55:47 437.325
AISAT 02 Sep 00:52:20 00:53:26 11° 272° (W) 00:54:16 437.250
QB50P1 02 Sep 00:57:27 01:01:29 39° 288° (WNW) 01:05:27 145.935-145.965
BEESAT 2 02 Sep 00:58:27 01:02:04 31° 245° (WSW) 01:05:37 435.950
SO-50 02 Sep 01:01:27 01:06:05 55° 118° (ESE) 01:10:54 436.795
UNISAT 6 02 Sep 01:05:17 01:07:50 14° 296° (WNW) 01:10:10 437.425
PCSat 02 Sep 01:07:08 01:11:23 25° 108° (ESE) 01:15:47 145.827
DANDE 02 Sep 01:09:37 01:13:04 54° 285° (WNW) 01:17:41 436.750
BEESAT 02 Sep 01:21:03 01:25:11 31° 69° (ENE) 01:29:23 436.000
GONETS M04 02 Sep 01:24:31 01:28:32 15° 78° (ENE) 01:33:11
TISAT 1 02 Sep 01:36:37 01:40:19 29° 264° (W) 01:44:01 437.305
AIST 2 02 Sep 01:42:11 01:46:17 58° 242° (WSW) 01:50:19 435.215
SWISSCUBE 02 Sep 01:46:33 01:51:14 61° 74° (ENE) 01:55:56 437.505
BUGSAT 1 02 Sep 02:04:55 02:07:05 13° 295° (WNW) 02:09:03 437.445
Cosmos 2504 02 Sep 02:07:03 02:11:52 15° 303° (WNW) 02:16:17 435.465 / 435.565
Oscar 19 02 Sep 02:09:05 02:14:02 44° 98° (E) 02:18:59 437.125/150
KKS-1 02 Sep 02:14:15 02:17:07 18° 66° (ENE) 02:20:08 437.445
ITUPSAT 1 02 Sep 02:25:40 02:30:23 60° 259° (W) 02:35:07 437.325
SO-50 02 Sep 02:43:09 02:47:00 22° 317° (NW) 02:50:51 436.795
RS-15 02 Sep 02:49:03 03:00:19 49° 249° (WSW) 03:11:42 29.354- 29.394
PCSat 02 Sep 02:49:22 02:54:33 46° 305° (NW) 02:59:47 145.827
JAS-2 02 Sep 02:58:47 03:03:51 23° 87° (E) 03:08:43 435.910
BEESAT 02 Sep 02:58:55 03:03:01 28° 265° (W) 03:07:04 436.000
Gurwin Techsat 1B 02 Sep 02:59:45 03:04:44 41° 97° (E) 03:09:45 435.225
ITAMSAT 1 02 Sep 03:10:36 03:15:29 41° 98° (E) 03:20:24 435.822/435.867
GONETS M04 02 Sep 03:15:30 03:24:10 82° 96° (E) 03:32:55
Cosmos 2499 02 Sep 03:18:00 03:24:05 23° 81° (E) 03:30:42 435.465 / 435.565
SWISSCUBE 02 Sep 03:27:01 03:29:33 14° 271° (W) 03:31:52 437.505
STARS 02 Sep 03:27:09 03:31:29 60° 74° (ENE) 03:35:53 437.465
VERMONT LUNAR 02 Sep 03:43:58 03:46:46 37° 160° (SSE) 03:49:34 437.305
Oscar 19 02 Sep 03:49:02 03:53:09 23° 294° (WNW) 03:57:07 437.125/150
KKS-1 02 Sep 03:49:09 03:53:26 45° 261° (W) 03:57:44 437.445
MOZHAYETS 4 02 Sep 04:10:34 04:14:53 41° 72° (ENE) 04:19:13
AO-7 02 Sep 04:12:53 04:20:05 33° 95° (E) 04:27:26 29.400- 29.500
O/OREOS (USA 219) 02 Sep 04:23:52 04:28:00 32° 60° (ENE) 04:32:09 437.305
Gurwin Techsat 1B 02 Sep 04:40:11 04:44:32 26° 294° (WNW) 04:48:46 435.225
JAS-2 02 Sep 04:42:43 04:49:36 59° 289° (WNW) 04:55:37 435.910
ITAMSAT 1 02 Sep 04:50:36 04:54:48 25° 294° (WNW) 04:58:53 435.822/435.867
PHONESAT 2.4 02 Sep 04:52:00 04:54:14 17° 150° (SSE) 04:56:30 2401.200-2431.200
HORYU 2 02 Sep 04:52:05 04:56:28 53° 100° (E) 05:00:49 437.375
STARS 02 Sep 05:06:30 05:08:25 12° 271° (W) 05:10:05 437.465
Cosmos 2499 02 Sep 05:07:54 05:16:24 75° 280° (W) 05:25:19 435.465 / 435.565
GONETS M04 02 Sep 05:15:49 05:22:15 21° 298° (WNW) 05:28:22
VERMONT LUNAR 02 Sep 05:20:04 05:23:04 87° 170° (S) 05:26:03 437.305
MOZHAYETS 4 02 Sep 05:48:57 05:52:19 19° 268° (W) 05:55:32
O/OREOS (USA 219) 02 Sep 06:03:32 06:07:18 25° 257° (WSW) 06:10:59 437.305
AO-7 02 Sep 06:05:13 06:13:16 55° 294° (WNW) 06:21:13 29.400- 29.500
CUBESAT XI-V 02 Sep 06:07:50 06:12:21 61° 74° (ENE) 06:16:54 437.345
PHONESAT 2.4 02 Sep 06:28:21 06:31:43 57° 165° (SSE) 06:35:04 2401.200-2431.200
HORYU 2 02 Sep 06:30:04 06:32:42 15° 296° (WNW) 06:35:11 437.375
STRAND 1 02 Sep 06:30:53 06:35:17 31° 68° (ENE) 06:39:47 437.568
JAS-2 02 Sep 06:31:33 06:33:10 11° 309° (NW) 06:34:19 435.910
Cubesat XI-IV 02 Sep 06:39:36 06:44:05 28° 94° (E) 06:48:41 437.490
YUBILEINY 02 Sep 06:44:05 06:49:03 17° 58° (ENE) 06:54:30 435.215
VERMONT LUNAR 02 Sep 06:56:30 06:59:27 63° 193° (SSW) 07:02:23 437.305
Cosmos 2499 02 Sep 07:06:20 07:11:29 16° 303° (WNW) 07:16:11 435.465 / 435.565
CUTE-I 02 Sep 07:23:36 07:28:55 72° 102° (ESE) 07:34:15 437.470
PRISM 02 Sep 07:33:52 07:37:58 87° 256° (WSW) 07:42:05 437.425
Cosmos 2491 02 Sep 07:34:58 07:38:59 15° 78° (ENE) 07:43:36 435.465 / 435.565
BRITE-PL 02 Sep 07:37:11 07:41:21 22° 91° (E) 07:45:44 437.365/2234.400
CUBESAT XI-V 02 Sep 07:48:08 07:50:17 13° 272° (W) 07:52:11 437.345
AIST 1 02 Sep 07:57:06 08:01:02 38° 93° (E) 08:05:01
GOMX 1 02 Sep 07:59:01 08:02:57 21° 90° (E) 08:07:03 467.674
AO-7 02 Sep 08:01:08 08:04:25 12° 314° (NW) 08:07:15 29.400- 29.500
PHONESAT 2.4 02 Sep 08:06:08 08:09:33 89° 186° (S) 08:12:57 2401.200-2431.200
DOVE 4 02 Sep 08:06:35 08:09:07 14° 87° (E) 08:11:57 437.250
STRAND 1 02 Sep 08:09:58 08:14:28 31° 264° (W) 08:18:56 437.568
ISS 02 Sep 08:12:42 08:15:36 31° 136° (SE) 08:18:33 145.825
Cubesat XI-IV 02 Sep 08:19:25 08:24:17 36° 291° (WNW) 08:29:06 437.490
CANX-2 02 Sep 08:32:23 08:34:38 14° 90° (E) 08:37:04 2200.000
VERMONT LUNAR 02 Sep 08:33:24 08:35:33 18° 208° (SSW) 08:37:39 437.305
YUBILEINY 02 Sep 08:38:44 08:47:38 81° 81° (E) 08:56:27 435.215
CINEMA 3 02 Sep 08:41:52 08:43:42 12° 86° (E) 08:45:48 145.822/145.860
SEEDS 02 Sep 08:50:51 08:53:27 16° 91° (E) 08:56:12 437.485
CUTE-I 02 Sep 09:05:18 09:08:28 16° 298° (WNW) 09:11:25 437.470
COMPASS 1 02 Sep 09:09:49 09:12:56 21° 93° (E) 09:16:08 437.405
BRITE-PL 02 Sep 09:14:44 09:20:07 53° 287° (WNW) 09:25:37 437.365/2234.400
AAUSAT CUBESAT 2 02 Sep 09:18:36 09:21:47 22° 93° (E) 09:25:03 437.432
TIGRISAT 02 Sep 09:20:29 09:21:28 11° 62° (ENE) 09:22:43 435.000
Cosmos 2491 02 Sep 09:25:56 09:34:38 82° 95° (E) 09:43:22 435.465 / 435.565
CUSAT 1 02 Sep 09:26:35 09:31:07 17° 60° (ENE) 09:36:16 437.405
AUBIESAT-1 02 Sep 09:26:47 09:29:19 15° 60° (ENE) 09:31:59 437.475
M-CUBED/EXP-1 PRIME 02 Sep 09:32:41 09:36:04 20° 62° (ENE) 09:39:31 437.505
SO-50 02 Sep 09:33:17 09:38:04 47° 52° (NE) 09:42:44 436.795
HO-68 02 Sep 09:34:36 09:41:46 65° 102° (ESE) 09:48:55 435.675
GOMX 1 02 Sep 09:36:03 09:41:23 54° 287° (WNW) 09:46:42 467.674
AIST 1 02 Sep 09:36:07 09:38:55 16° 290° (WNW) 09:41:34
ANTELSAT 02 Sep 09:36:11 09:39:02 17° 65° (ENE) 09:42:05 437.575/2403.000
DOVE 4 02 Sep 09:42:09 09:47:29 73° 285° (WNW) 09:52:43 437.250
PHONESAT 2.4 02 Sep 09:44:02 09:47:21 49° 198° (SSW) 09:50:38 2401.200-2431.200
ISS 02 Sep 09:49:01 09:52:00 32° 333° (NNW) 09:54:59 145.825
ZACube-1 02 Sep 09:51:20 09:53:53 15° 89° (E) 09:56:35 437.345
CUTE 1.7 + AOD 2 02 Sep 09:52:24 09:56:38 75° 283° (WNW) 10:00:49 437.475
PCSat 02 Sep 09:54:39 09:58:47 22° 45° (NE) 10:03:00 145.827
FUNcube-1 02 Sep 09:55:49 09:58:35 17° 90° (E) 10:01:29 145.935
CUBEBUG 2 02 Sep 09:56:57 10:01:05 31° 95° (E) 10:05:09 437.445
Cosmos 2504 02 Sep 09:57:16 10:04:55 37° 70° (ENE) 10:12:16 435.465 / 435.565
UWE-3 02 Sep 10:00:48 10:04:38 26° 94° (E) 10:08:25 435.000/436.395/437.385
QB50P2 02 Sep 10:03:44 10:04:05 10° 63° (ENE) 10:04:41 145.880/145.840
DANDE 02 Sep 10:04:48 10:10:26 22° 65° (ENE) 10:16:50 436.750
CANX-2 02 Sep 10:06:49 10:10:52 45° 287° (WNW) 10:14:52 2200.000
QB50P1 02 Sep 10:15:59 10:18:03 14° 65° (ENE) 10:20:21 145.935-145.965
CINEMA 3 02 Sep 10:16:32 10:21:33 73° 285° (WNW) 10:26:22 145.822/145.860
HUMSAT D 02 Sep 10:23:58 10:25:39 12° 89° (E) 10:27:31 437.325/437.525
UNISAT 6 02 Sep 10:25:10 10:29:41 50° 73° (ENE) 10:34:16 437.425
SEEDS 02 Sep 10:25:32 10:29:28 39° 288° (WNW) 10:33:20 437.485
YUBILEINY 02 Sep 10:37:22 10:43:32 21° 279° (W) 10:49:14 435.215
Oscar 11 02 Sep 10:39:26 10:43:46 81° 102° (ESE) 10:48:04 145.826/435.025
COMPASS 1 02 Sep 10:44:59 10:48:39 30° 289° (WNW) 10:52:16 437.405
UKube-1 02 Sep 10:46:58 10:47:55 11° 88° (E) 10:49:08 .
TIGRISAT 02 Sep 10:52:52 10:57:33 87° 257° (WSW) 11:02:18 435.000
AAUSAT CUBESAT 2 02 Sep 10:53:49 10:57:25 29° 289° (WNW) 11:00:56 437.432
AUBIESAT-1 02 Sep 10:58:48 11:03:33 69° 254° (WSW) 11:08:11 437.475
AISAT 02 Sep 11:04:30 11:06:35 13° 89° (E) 11:08:54 437.250
M-CUBED/EXP-1 PRIME 02 Sep 11:05:49 11:10:30 50° 256° (WSW) 11:15:06 437.505
DELFI C3 02 Sep 11:06:00 11:10:00 75° 285° (WNW) 11:13:57 145.870
CUSAT 1 02 Sep 11:07:02 11:14:58 75° 79° (E) 11:23:11 437.405
ANTELSAT 02 Sep 11:10:48 11:15:25 54° 261° (W) 11:20:03 437.575/2403.000
SO-50 02 Sep 11:14:31 11:18:19 22° 249° (WSW) 11:21:57 436.795
POLYITAN 1 02 Sep 11:15:49 11:20:02 63° 75° (ENE) 11:24:19 437.675
DUCHIFAT 1 02 Sep 11:16:46 11:20:56 60° 75° (ENE) 11:25:09 145.980
BUGSAT 1 02 Sep 11:17:37 11:21:20 36° 72° (ENE) 11:25:11 437.445
POPSAT HIP 1 02 Sep 11:17:46 11:21:59 64° 74° (ENE) 11:26:14 437.405
PHONESAT 2.4 02 Sep 11:22:59 11:24:46 13° 212° (SSW) 11:26:28 2401.200-2431.200
HO-68 02 Sep 11:23:16 11:29:00 26° 300° (WNW) 11:34:33 435.675
DOVE 4 02 Sep 11:23:58 11:24:23 10° 300° (WNW) 11:24:28 437.250
ZACube-1 02 Sep 11:26:15 11:30:36 48° 287° (WNW) 11:34:47 437.345
Cosmos 2491 02 Sep 11:26:16 11:32:44 21° 298° (WNW) 11:38:50 435.465 / 435.565
ISS 02 Sep 11:27:32 11:29:11 13° 352° (N) 11:30:49 145.825
FUNcube-1 02 Sep 11:30:56 11:35:12 44° 288° (WNW) 11:39:20 145.935
VELOX 1 02 Sep 11:30:58 11:34:38 25° 94° (E) 11:38:21 145.980
50 SAT 02 Sep 11:33:32 11:36:57 30° 96° (E) 11:40:22 437.505
CUBEBUG 2 02 Sep 11:33:46 11:37:39 26° 292° (WNW) 11:41:22 437.445
NANOSAT C BR1 02 Sep 11:34:50 11:39:04 82° 258° (WSW) 11:43:22 145.865
QB50P2 02 Sep 11:35:09 11:39:24 77° 258° (WSW) 11:43:42 145.880/145.840
UWE-3 02 Sep 11:37:09 11:41:09 29° 291° (WNW) 11:44:58 435.000/436.395/437.385
PCSat 02 Sep 11:37:19 11:42:40 61° 245° (WSW) 11:48:00 145.827
DANDE 02 Sep 11:46:34 11:54:21 85° 262° (W) 12:02:56 436.750
QB50P1 02 Sep 11:49:20 11:53:30 54° 260° (W) 11:57:42 145.935-145.965
Cosmos 2504 02 Sep 11:49:21 11:57:20 47° 271° (W) 12:04:46 435.465 / 435.565
HUMSAT D 02 Sep 11:57:38 12:01:48 53° 286° (WNW) 12:05:50 437.325/437.525
UNISAT 6 02 Sep 12:03:44 12:06:47 17° 270° (W) 12:09:41 437.425
DX 1 02 Sep 12:10:15 12:14:38 76° 285° (WNW) 12:19:00 434.975-435.025
UKube-1 02 Sep 12:20:15 12:24:34 65° 286° (WNW) 12:28:51 .
SPROUT 02 Sep 12:24:18 12:27:14 18° 92° (E) 12:30:18 437.525
ESTCUBE 1 02 Sep 12:32:00 12:36:32 88° 95° (E) 12:41:03 437.505/2401.250
CUBEBUG 1 02 Sep 12:34:23 12:38:49 78° 102° (ESE) 12:43:15 437.445
AISAT 02 Sep 12:39:10 12:43:35 56° 286° (WNW) 12:47:58 437.250
CUSAT 1 02 Sep 12:50:46 12:56:58 24° 274° (W) 13:03:00 437.405
BUGSAT 1 02 Sep 12:54:14 12:57:00 17° 269° (W) 12:59:39 437.445
POLYITAN 1 02 Sep 12:55:10 12:56:27 11° 272° (W) 12:57:27 437.675
DUCHIFAT 1 02 Sep 12:55:46 12:57:12 11° 272° (W) 12:58:23 145.980
POPSAT HIP 1 02 Sep 12:57:22 12:58:22 10° 272° (W) 12:59:05 437.405
ISS 02 Sep 13:04:41 13:06:37 15° 12° (NNE) 13:08:35 145.825
VELOX 1 02 Sep 13:07:16 13:11:11 30° 290° (WNW) 13:15:03 145.980
50 SAT 02 Sep 13:08:31 13:11:17 19° 292° (WNW) 13:13:56 437.505
JAS-2 02 Sep 13:11:54 13:15:22 14° 54° (NE) 13:19:17 435.910
TISAT 1 02 Sep 13:20:41 13:24:45 42° 98° (E) 13:28:48 437.305
Oscar 19 02 Sep 13:25:29 13:30:33 62° 74° (ENE) 13:35:43 437.125/150
GONETS M04 02 Sep 13:26:19 13:34:25 40° 72° (ENE) 13:42:39
DANDE 02 Sep 13:31:44 13:36:50 18° 275° (W) 13:41:45 436.750
SWISSCUBE 02 Sep 13:48:27 13:51:12 16° 90° (E) 13:54:10 437.505
SPROUT 02 Sep 13:59:26 14:03:30 39° 288° (WNW) 14:07:30 437.525
CUBEBUG 1 02 Sep 14:13:29 14:14:37 11° 297° (WNW) 14:15:29 437.445
Gurwin Techsat 1B 02 Sep 14:20:26 14:25:40 63° 74° (ENE) 14:30:56 435.225
ITUPSAT 1 02 Sep 14:26:40 14:31:00 35° 97° (E) 14:35:22 437.325
ITAMSAT 1 02 Sep 14:28:13 14:33:18 61° 73° (ENE) 14:38:26 435.822/435.867
BEESAT 3 02 Sep 14:36:05 14:39:55 43° 117° (ESE) 14:43:50 437.485
ISS 02 Sep 14:40:29 14:43:40 48° 32° (NNE) 14:46:49 145.825
BEESAT 2 02 Sep 14:50:46 14:54:41 47° 118° (ESE) 14:58:40 435.950
JAS-2 02 Sep 14:51:31 14:59:06 64° 72° (ENE) 15:06:52 435.910
TISAT 1 02 Sep 14:57:19 15:00:12 17° 294° (WNW) 15:02:57 437.305
BEESAT 02 Sep 14:58:26 15:03:13 77° 102° (ESE) 15:07:59 436.000
Cosmos 2499 02 Sep 15:00:24 15:08:26 42° 72° (ENE) 15:16:02 435.465 / 435.565
RS-15 02 Sep 15:01:43 15:10:27 31° 105° (ESE) 15:19:48 29.354- 29.394
Oscar 19 02 Sep 15:07:16 15:10:26 16° 271° (W) 15:13:22 437.125/150
AO-7 02 Sep 15:11:22 15:19:07 46° 63° (ENE) 15:26:55 29.400- 29.500
STARS 02 Sep 15:19:31 15:20:47 11° 88° (E) 15:22:18 437.465
GONETS M04 02 Sep 15:23:09 15:31:24 45° 271° (W) 15:39:32
SWISSCUBE 02 Sep 15:24:48 15:29:27 53° 287° (WNW) 15:34:03 437.505
AIST 2 02 Sep 15:39:44 15:43:27 31° 115° (ESE) 15:47:15 435.215
KKS-1 02 Sep 15:40:29 15:44:34 34° 97° (E) 15:48:40 437.445
HORYU 2 02 Sep 15:49:48 15:54:07 48° 72° (ENE) 15:58:28 437.375
Gurwin Techsat 1B 02 Sep 16:02:54 16:06:11 16° 271° (W) 16:09:14 435.225
ITUPSAT 1 02 Sep 16:04:52 16:08:45 25° 293° (WNW) 16:12:32 437.325
ITAMSAT 1 02 Sep 16:10:08 16:13:19 16° 270° (W) 16:16:15 435.822/435.867
BEESAT 3 02 Sep 16:15:00 16:18:04 20° 315° (NW) 16:21:04 437.485
ISS 02 Sep 16:17:29 16:19:51 18° 227° (SW) 16:22:09 145.825
BEESAT 2 02 Sep 16:29:58 16:32:59 19° 316° (NW) 16:35:56 435.950
JAS-2 02 Sep 16:38:10 16:44:39 28° 270° (W) 16:51:01 435.910
BEESAT 02 Sep 16:38:27 16:40:29 12° 298° (WNW) 16:42:18 436.000
STARS 02 Sep 16:53:18 16:57:44 65° 286° (WNW) 17:02:07 437.465
Cosmos 2499 02 Sep 16:53:40 17:01:37 42° 272° (W) 17:08:56 435.465 / 435.565
AO-7 02 Sep 17:04:10 17:11:59 42° 262° (W) 17:19:43 29.400- 29.500
CUTE-I 02 Sep 17:08:09 17:11:01 15° 62° (ENE) 17:14:08 437.470
RS-15 02 Sep 17:11:00 17:21:57 73° 307° (NW) 17:33:22 29.354- 29.394
KKS-1 02 Sep 17:17:28 17:21:02 23° 292° (WNW) 17:24:30 437.445
AIST 2 02 Sep 17:18:21 17:22:02 27° 312° (NW) 17:25:41 435.215
HORYU 2 02 Sep 17:28:13 17:31:03 16° 269° (W) 17:33:43 437.375
